Погода в Инзе

Хотите узнать прогноз погоды в Инзе? Тогда Вам сюда: Погода в Инзе

Поиск расширенной информации на нашем сайте:

Полезная информация:

Новости сайта



02.01.2020
Опубликован Долгосрочный прогноз погоды по городам России и ближнего зарубежья на январь 2020 года.
Карты: Прогноз на январь и февраль 2020 года, Сравнение прогнозируемой аномалии приземной температуры воздуха на январь 2020 года по разным моделям.




Погода в Инзе - сегодня

Время (UTC), дата Ветер
(°,м/с) 
Видим.   Явления Облачность Т
(°С)
Тd
(°С)
f(%) Тe
(°С)
Pmin
(гПа)
dP
(гПа)
Po
(мм)
O2
(г/м3)
Тmin Tmax R s Состояние
почвы
18 24.02.21 140 (ЮВ) 28000 м    10/0 верхняя 
[Cs]
-23.7 -27 74 -24  1038.2  -0.6  760  337           
21 24.02.21 140 (ЮВ) 28000 м    ясно 
-27.3 -29.7 80 -31  1037.2  -1.4  759  342           
00 25.02.21 150 (ЮВ) 28000 м    10/0 средняя, верхняя 
[Ac lent|Cs]
-29.1 -32.1 75 -33  1036.1  -1.2  758  344           
03 25.02.21 130 (ЮВ) 28000 м    10/0 средняя 
[Ac und]
-24.1 -26.7 79 -27  1032.8  -2.7  756  336  -29.7      41  неравномерный
сухой снег
100% 
06 25.02.21 150 (ЮВ) 4000 м  слаб. снег  10/0 средняя 
[As op]
-19.4 -22.4 77 -25  1029.1  -3.2  754  329           
09 25.02.21 160 (Ю) 4000 м  снег  10/10 600 м 
[Frnb|Ns]
-16 -18.5 81 -21  1024.1  -4.6  750  323           
12 25.02.21 170 (Ю) 4000 м  снег  10/10 600 м 
[Frnb|Ns]
-14.5 -16.9 82 -19  1019.9  -4  747  319           
15 25.02.21 150 (ЮВ) 4000 м  слаб. снег  10/10 600 м 
[Frnb|Ns]
-14.6 -16.6 85 -18  1017.6  -2.3  746  319    -14.2     
18 25.02.21 120 (ЮВ) 6000 м  слаб. снег  10/10 600 м 
[Frnb|Ns]
-14.5 -16.1 88 -17  1015.9  -1.6  745  318           
21 25.02.21 120 (ЮВ) 6000 м  слаб. снег  10/10 600 м 
[Frnb|Ns]
-13.3 -14.6 90 -13  1015  -0.8  744  316           
00 26.02.21 тихо ()   6000 м  слаб. снег  10/10 600 м 
[Frnb|Ns]
-12.9 -14.2 90 -13  1014.9  0.1  744  316           
03 26.02.21 130 (ЮВ) 30000 м  {снег}  10/10 600 м 
[Sc]
-12.5 -13.8 90 -12  1014.9  -0.1  744  315  -14.6    0.4  44  неравномерный
сухой снег
100% 
06 26.02.21 120 (ЮВ) 20000 м  {снег}  10/10 600 м 
[Sc]
-10.8 -12.1 90 -13  1014.2  -0.5  744  313           
09 26.02.21 150 (ЮВ) 4000 м  слаб. снег  10/0 средняя 
[Frnb|As op]
-6.8 -8.7 86 -9  1012.5  -1.4  743  308           
12 26.02.21 130 (ЮВ) 4000 м  снег  10/10 600 м 
[Frnb|Ns]
-5.6 -6.6 93 -9  1008.8  -3.5  740  305           
15 26.02.21 160 (Ю) 6{10}  20000 м  {снег}  10/10 600 м 
[St]
-5.9 -6.7 94 -10  1005.3  -3.4  737  304    -5.1     
18 26.02.21 140 (ЮВ) 6000 м  слаб. переохл. морось (гололёд){снег} [диам. гололёда 2 мм]  10/10 300 м 
[St]
-4.1 -4.6 96 -6  1000.9  -4.1  734  301           
21 26.02.21 тихо ()   28000 м  {снег, морось}  10/10 300 м 
[St]
-2.3 -2.8 96 -2  998.9  -1.8  733  298           
00 27.02.21 260 (З) 28000 м  {снег, морось}  10/10 300 м 
[St]
+2.6 +0.9 89 997.9  -0.6  732  292           
03 27.02.21 250 (З) 28000 м    10/10 600 м 
[Sc]
+2.4 +0 84 +1  997  -0.9  732  292  -5.9    44  неравномерный
мокрый или
старый снег
100% 
06 27.02.21 260 (З) 4000 м  снег{дождь}  10/10 600 м 
[Frnb|Ns]
+1.3 +0.3 93 -1  996.6  -0.5  731  293           
09 27.02.21 280 (З) 4000 м  слаб. снег{дождь}  10/10 600 м 
[Frnb|Ns]
+1.3 +0.2 92 -1  996.7  0.1  731  293           
12 27.02.21 320 (СЗ) 7{10}  4000 м  снег{дождь}  10/10 600 м 
[Frnb|Ns]
-4.1 -5.6 89 -9  999.6  2.5  733  301           
15 27.02.21 330 (СЗ) 5{10}  4000 м  слаб. снег  10/10 600 м 
[Frnb|Ns]
-11 -13.6 81 -16  1005  4.6  737  311    +2.4     
18 27.02.21 330 (СЗ) 20000 м  слаб. снег  10/0 средняя 
[As trans]
-13 -15.5 81 -17  1007.6  2.4  739  314           
Время (UTC), дата Ветер
(°,м/с) 
Видим.   Явления Облачность Т
(°С)
Тd
(°С)
f(%) Тe
(°С)
Pmin
(гПа)
dP
(гПа)
Po
(мм)
O2
(г/м3)
Тmin Tmax R s Состояние
почвы

Для получения пояснительной информации подведите курсор к названию столбца.

ПОГОДА в Инзе - архив

Всё, что Вы хотите узнать о погоде в Инзе - удобно и подробно!

Выберите нужную дату (начиная с 1 января 2019* года) и нажмите кнопку "Найти".
Будут отображены архивные сводки погоды по пункту Инза, начиная с указанной даты.


Отображать данные в формате CSV (для использования в таблицах Excel)


Внимание! Наш архив погоды предназначен исключительно для личного некоммерческого использования в познавательных целях. Если Вам необходимы официальные справки о состоянии погоды (для производственных, юридических, коммерческих и т.п. целей), обращайтесь в органы Росгидромета.

*Примечание: данная дата относится к архиву по метеостанциям СССР (Россия, СНГ, Балтия).
Архив по метеостанциям Зарубежной Европы и Азии (кроме Китая) хранится 10 дней, по другим регионам земного шара (Китай, Африка, Америка, Австралия, Океания) - 1 день.

Инза - район местоположения метеостанции


Название, широта, долгота, высота метеостанции:
Инза 53.8°ш. 46.4°д. 176 м над ур. моря [Российская Федерация]

Дополнительная информация

В oтличие oт бoльшинства пoгoдных сайтoв мы публикуем пoдрoбную метеoинфoрмацию в детальнoм прoфессиoнальнoм фoрмате.

Характеристики температуры и влажнoсти вoздуха измеряются на высoте 2 м в тени вдали oт зданий и деревьев.
Скoрoсть ветра измеряется на высoте 10 м (на урoвне рoста челoвека скoрoсть ветра ниже в 1.5-2 раза). Если метеoстанция нахoдится в гoрoде или в лесу, тo скoрoсть ветра занижена на 2-4 м/с пo сравнению с oткрытым местoм. Скoрoсть ветра над акватoриями крупных рек и oзёр, а также на вершинах хoлмoв на 2-5 м/с выше, чем в oбычных услoвиях.
Атмoсфернoе давление в разных тoчках местнoсти мoжет значительнo oтличаться oт давления на метеoстанции, в зависимoсти oт услoвий рельефа (при пoдъёме на 10 м давление пoнижается примернo на 1 мм рт.ст.).